sat.trackr.live / text

‹ back to catalog

HONGHU 2

NORAD 58555 · 2023-193C

PAYLOAD ACTIVE UNKNOWN

§ Identity

Operator
Country
PRC
Launch date
2023-12-08
Launch site
JSC
Launch vehicle
Mass (kg)
RCS (m²)

External: N2YO · Heavens-Above · Gunter

§ Orbital elements

Epoch: 2026-09-21T20:00:53.895168Z

Period
93.87 min
Inclination
97.2861°
Eccentricity
0.0040077
Mean motion
15.34041845 rev/d
Perigee alt
436.3 km
Apogee alt
491.2 km
Semi-major
6,841.9 km
B*
1.6600e-4
RAAN
254.7138°
Arg perigee
295.3509°
Mean anomaly
64.3586°
Rev number
11,688

§ Raw data

HONGHU 21 58555U 23193C   26264.83395712  .00005527  00000+0  16600-3 0  99982 58555  97.2861 254.7138 0040077 295.3509  64.3586 15.34041845116885

JSON: /api/v1/satellites/58555 · /tle

For live sub-satellite position, see the globe view (requires WebGL).

§ Visibility from observer

Set your observer location to see the next 7 days of passes ≥ 10°. The values pass through the URL so the page stays shareable.

No JS? Fill the form by hand. The geolocation button needs JavaScript.

§ Radio — SatNOGS DB

ModeDescriptionDownlinkUplink
FM Mode U - Transmitter 401.612 MHz

1 transmitter · refreshed weekly from db.satnogs.org